Precipitable_Water
0.36 0.35 0.31 0.30 0.27 0.24 0.24 0.25 0.27 0.31 0.29 0.27 0.30 0.32 0.34 0.34 0.33 0.31 0.33 0.35 0.35 0.35 0.40 0.43 0.52 0.51 0.46 0.44 0.42 0.41 0.42 0.42 0.40 0.39 0.38 0.38 0.37 0.40 0.41 0.42 0.42 0.40 0.39 0.39
0.32 0.28 0.30 0.27 0.22 0.22 0.22 0.22 0.26 0.31 0.33 0.27 0.31 0.32 0.33 0.33 0.33 0.35 0.36 0.35 0.35 0.36 0.39 0.39 0.50 0.47 0.41 0.41 0.42 0.42 0.41 0.40 0.39 0.38 0.39 0.39 0.38 0.38 0.38 0.38 0.37 0.36 0.36 0.36
0.29 0.27 0.25 0.23 0.20 0.20 0.18 0.17 0.23 0.22 0.29 0.28 0.31 0.27 0.29 0.33 0.37 0.38 0.38 0.39 0.36 0.35 0.35 0.35 0.41 0.42 0.41 0.41 0.41 0.40 0.39 0.39 0.39 0.37 0.37 0.35 0.36 0.35 0.33 0.33 0.32 0.33 0.35 0.36
0.28 0.27 0.24 0.22 0.20 0.20 0.20 0.21 0.19 0.15 0.20 0.22 0.31 0.18 0.28 0.32 0.34 0.36 0.38 0.38 0.35 0.36 0.35 0.34 0.33 0.40 0.39 0.40 0.40 0.40 0.39 0.39 0.38 0.39 0.35 0.33 0.31 0.30 0.32 0.33 0.35 0.36 0.34 0.36
0.31 0.27 0.24 0.23 0.23 0.22 0.21 0.22 0.17 0.15 0.18 0.20 0.23 0.23 0.25 0.32 0.31 0.34 0.38 0.37 0.37 0.36 0.34 0.33 0.33 0.38 0.42 0.40 0.39 0.40 0.39 0.37 0.37 0.39 0.36 0.33 0.31 0.34 0.34 0.36 0.36 0.34 0.30 0.33
0.29 0.27 0.23 0.24 0.22 0.20 0.20 0.18 0.19 0.21 0.19 0.17 0.22 0.22 0.26 0.29 0.32 0.34 0.38 0.37 0.37 0.33 0.35 0.35 0.36 0.40 0.43 0.42 0.41 0.40 0.37 0.37 0.37 0.36 0.34 0.33 0.32 0.34 0.31 0.31 0.29 0.28 0.28 0.30
0.23 0.22 0.23 0.22 0.19 0.24 0.21 0.20 0.17 0.17 0.18 0.17 0.20 0.19 0.27 0.34 0.36 0.37 0.37 0.35 0.34 0.34 0.34 0.34 0.36 0.41 0.40 0.39 0.38 0.38 0.36 0.35 0.35 0.34 0.34 0.34 0.33 0.34 0.29 0.28 0.26 0.26 0.26 0.27
0.21 0.21 0.23 0.24 0.21 0.21 0.19 0.16 0.13 0.12 0.13 0.14 0.18 0.14 0.25 0.34 0.37 0.38 0.37 0.33 0.33 0.32 0.33 0.35 0.40 0.39 0.39 0.38 0.37 0.36 0.35 0.34 0.34 0.34 0.33 0.33 0.34 0.30 0.30 0.28 0.26 0.25 0.27 0.28
0.16 0.17 0.22 0.20 0.20 0.17 0.21 0.16 0.21 0.14 0.12 0.13 0.17 0.25 0.32 0.33 0.33 0.34 0.33 0.34 0.32 0.32 0.33 0.37 0.40 0.39 0.37 0.36 0.36 0.36 0.34 0.33 0.33 0.33 0.32 0.29 0.28 0.26 0.24 0.23 0.23 0.24 0.26 0.27
0.21 0.18 0.20 0.22 0.18 0.18 0.14 0.19 0.13 0.19 0.15 0.13 0.15 0.18 0.24 0.29 0.31 0.33 0.33 0.32 0.32 0.34 0.35 0.38 0.38 0.36 0.36 0.36 0.37 0.36 0.34 0.33 0.32 0.33 0.30 0.27 0.26 0.26 0.24 0.22 0.21 0.21 0.24 0.24
0.24 0.22 0.21 0.20 0.18 0.20 0.20 0.18 0.20 0.19 0.15 0.12 0.13 0.19 0.32 0.32 0.33 0.34 0.33 0.34 0.33 0.33 0.35 0.36 0.36 0.36 0.36 0.36 0.36 0.35 0.34 0.32 0.31 0.28 0.27 0.26 0.23 0.22 0.22 0.21 0.22 0.22 0.24 0.24
0.32 0.27 0.22 0.21 0.25 0.23 0.17 0.16 0.18 0.15 0.16 0.20 0.20 0.19 0.35 0.36 0.36 0.33 0.33 0.33 0.34 0.35 0.35 0.35 0.35 0.35 0.34 0.35 0.35 0.34 0.34 0.30 0.27 0.24 0.21 0.20 0.20 0.21 0.21 0.21 0.22 0.23 0.24 0.25
0.26 0.25 0.21 0.20 0.24 0.26 0.17 0.21 0.19 0.20 0.20 0.18 0.17 0.20 0.38 0.35 0.32 0.33 0.33 0.33 0.34 0.36 0.36 0.35 0.34 0.34 0.34 0.34 0.34 0.33 0.30 0.27 0.24 0.21 0.19 0.18 0.19 0.19 0.20 0.21 0.22 0.24 0.24 0.25
0.32 0.29 0.26 0.22 0.22 0.20 0.22 0.23 0.21 0.21 0.19 0.19 0.20 0.22 0.30 0.31 0.33 0.36 0.34 0.34 0.34 0.35 0.33 0.32 0.34 0.34 0.34 0.34 0.33 0.28 0.26 0.26 0.23 0.20 0.18 0.17 0.18 0.19 0.20 0.21 0.22 0.24 0.25 0.24
0.35 0.29 0.30 0.30 0.28 0.24 0.22 0.21 0.20 0.19 0.18 0.17 0.19 0.19 0.22 0.29 0.36 0.37 0.36 0.33 0.32 0.32 0.32 0.33 0.33 0.33 0.33 0.31 0.29 0.27 0.26 0.24 0.22 0.20 0.18 0.16 0.17 0.18 0.20 0.21 0.22 0.24 0.25 0.25
0.36 0.30 0.31 0.26 0.28 0.25 0.22 0.25 0.24 0.22 0.21 0.19 0.19 0.19 0.30 0.33 0.33 0.32 0.30 0.30 0.30 0.31 0.32 0.33 0.33 0.33 0.32 0.29 0.27 0.28 0.25 0.22 0.21 0.19 0.18 0.17 0.16 0.17 0.19 0.21 0.22 0.23 0.24 0.25
0.40 0.33 0.29 0.24 0.26 0.25 0.21 0.24 0.23 0.21 0.22 0.20 0.19 0.27 0.33 0.30 0.29 0.29 0.30 0.33 0.31 0.33 0.33 0.32 0.33 0.33 0.31 0.30 0.30 0.27 0.25 0.23 0.19 0.18 0.17 0.17 0.16 0.16 0.18 0.20 0.21 0.22 0.23 0.23
0.40 0.35 0.31 0.25 0.26 0.17 0.26 0.29 0.23 0.21 0.22 0.22 0.23 0.25 0.31 0.31 0.32 0.33 0.33 0.34 0.36 0.35 0.34 0.33 0.34 0.34 0.32 0.33 0.31 0.28 0.27 0.22 0.19 0.17 0.17 0.17 0.17 0.16 0.18 0.19 0.20 0.21 0.22 0.22
0.43 0.37 0.31 0.24 0.22 0.25 0.26 0.26 0.25 0.22 0.22 0.24 0.26 0.29 0.33 0.32 0.30 0.33 0.38 0.41 0.40 0.37 0.35 0.35 0.36 0.34 0.34 0.33 0.31 0.30 0.25 0.20 0.17 0.16 0.15 0.16 0.17 0.15 0.17 0.18 0.18 0.19 0.20 0.20
0.40 0.38 0.31 0.27 0.21 0.18 0.27 0.31 0.32 0.26 0.18 0.29 0.31 0.33 0.34 0.34 0.24 0.32 0.41 0.42 0.39 0.36 0.36 0.35 0.35 0.35 0.35 0.33 0.32 0.31 0.22 0.17 0.15 0.15 0.15 0.16 0.16 0.15 0.16 0.16 0.17 0.16 0.18 0.18
0.30 0.30 0.25 0.29 0.27 0.30 0.36 0.34 0.34 0.19 0.28 0.35 0.33 0.32 0.36 0.32 0.36 0.41 0.42 0.40 0.38 0.37 0.36 0.36 0.36 0.35 0.34 0.33 0.32 0.27 0.19 0.15 0.16 0.15 0.15 0.16 0.16 0.16 0.14 0.14 0.15 0.13 0.14 0.16
0.29 0.27 0.28 0.30 0.28 0.26 0.40 0.36 0.24 0.37 0.36 0.34 0.34 0.38 0.38 0.39 0.40 0.40 0.39 0.38 0.37 0.36 0.35 0.37 0.35 0.34 0.33 0.32 0.29 0.23 0.16 0.17 0.15 0.14 0.14 0.15 0.15 0.15 0.13 0.11 0.12 0.10 0.11 0.12
0.29 0.34 0.35 0.34 0.34 0.43 0.41 0.41 0.44 0.39 0.34 0.39 0.39 0.42 0.41 0.40 0.39 0.39 0.38 0.38 0.38 0.36 0.37 0.37 0.35 0.33 0.33 0.29 0.23 0.16 0.15 0.15 0.15 0.14 0.14 0.16 0.14 0.14 0.14 0.12 0.10 0.10 0.09 0.10
0.40 0.42 0.34 0.35 0.39 0.38 0.42 0.42 0.46 0.43 0.39 0.42 0.43 0.44 0.41 0.40 0.42 0.41 0.40 0.39 0.38 0.38 0.37 0.37 0.35 0.33 0.32 0.27 0.20 0.16 0.15 0.16 0.15 0.14 0.13 0.14 0.13 0.12 0.13 0.13 0.13 0.11 0.10 0.09
0.41 0.40 0.38 0.36 0.38 0.39 0.42 0.45 0.45 0.46 0.40 0.38 0.39 0.41 0.41 0.42 0.43 0.41 0.40 0.39 0.39 0.38 0.37 0.37 0.35 0.34 0.26 0.23 0.16 0.15 0.15 0.15 0.14 0.12 0.13 0.13 0.13 0.12 0.12 0.13 0.14 0.12 0.12 0.11
0.42 0.39 0.37 0.37 0.48 0.48 0.49 0.50 0.42 0.40 0.39 0.38 0.38 0.39 0.41 0.43 0.43 0.42 0.41 0.41 0.39 0.37 0.37 0.36 0.34 0.28 0.24 0.19 0.14 0.15 0.15 0.13 0.12 0.12 0.13 0.13 0.13 0.12 0.12 0.12 0.12 0.13 0.13 0.12
Wind_Speed
8 8 3 4 8 10 10 10 6 9 13 12 10 8 8 8 8 10 10 13 16 19 21 24 26 29 32 34 36 38 39 42 44 45 45 45 45 44 44 44 45 45 44 43
8 2 5 7 9 9 9 9 7 10 10 13 9 9 7 7 9 10 11 14 17 20 22 25 27 30 33 35 36 38 40 42 44 45 45 45 45 44 44 45 45 44 43 42
2 4 7 9 7 9 8 10 11 13 11 14 9 11 9 8 8 10 12 14 17 21 24 27 29 30 34 35 36 39 40 43 45 45 45 45 44 43 44 44 42 43 42 41
5 7 8 8 7 11 11 11 13 15 13 13 10 16 12 10 10 10 11 14 18 22 25 27 30 32 32 35 37 38 41 44 45 45 45 45 44 43 42 42 41 42 41 40
6 8 8 9 10 12 10 14 15 15 15 16 17 14 16 9 12 12 11 15 20 23 25 28 30 32 32 35 37 39 41 43 44 45 45 44 43 41 39 40 41 40 40 39
7 8 9 10 10 12 13 14 14 14 13 15 17 14 9 11 14 11 12 17 21 24 26 29 31 32 33 36 37 40 42 42 44 45 44 43 41 39 37 38 39 40 40 38
8 7 8 11 12 11 12 14 14 13 10 13 7 8 8 8 9 9 14 18 22 25 27 30 30 31 34 36 38 40 41 42 44 44 43 41 39 36 35 36 38 39 39 36
11 10 9 10 11 13 14 13 12 12 11 13 9 11 9 7 8 11 14 17 22 25 28 29 29 32 34 37 38 40 41 42 43 43 41 39 36 34 33 34 36 37 37 36
11 9 9 10 12 13 11 11 11 14 17 15 13 8 10 10 12 13 16 20 23 26 28 27 30 33 35 37 38 40 41 42 42 41 39 37 35 33 32 33 34 35 35 36
10 11 12 11 13 13 14 13 12 10 12 13 13 10 11 13 14 15 18 22 25 27 27 28 30 33 35 36 38 39 41 41 40 39 37 36 35 32 31 32 32 33 34 35
10 12 11 13 12 11 11 11 11 12 14 14 15 12 13 14 15 16 20 24 26 26 27 28 30 33 35 36 38 38 40 40 39 38 36 35 34 32 31 31 31 32 33 34
11 12 13 10 10 14 15 15 14 13 13 15 18 19 16 15 16 19 21 24 24 25 26 28 31 33 35 36 37 38 39 39 38 37 35 34 32 31 29 30 30 31 32 33
12 12 13 12 12 11 12 11 13 16 16 17 17 17 15 17 19 20 21 23 24 24 26 28 31 33 35 36 37 37 38 38 37 35 34 33 31 30 29 29 29 29 31 32
13 14 15 15 15 13 15 14 16 17 17 20 20 19 18 21 22 21 22 24 23 24 27 29 31 33 34 35 36 37 37 37 36 34 34 32 30 29 28 28 28 29 30 31
14 15 16 17 18 18 19 20 20 22 22 23 24 25 25 19 20 20 22 23 24 25 27 29 31 32 33 34 35 36 36 36 34 33 32 31 29 28 27 27 27 28 30 31
14 15 15 18 19 19 20 21 23 24 25 26 25 24 19 18 18 20 21 22 23 25 27 29 30 32 32 34 34 35 35 34 33 32 30 29 28 27 27 27 27 28 29 31
14 15 14 15 14 17 20 19 19 21 21 21 20 17 18 20 21 20 21 22 23 25 27 29 29 31 32 33 34 34 33 32 31 30 29 28 27 26 26 27 28 29 30 31
15 15 15 15 16 16 16 16 17 19 19 20 20 19 19 19 19 21 22 22 23 26 27 28 29 30 31 32 32 32 31 30 29 28 27 27 26 26 26 27 28 29 30 32
16 16 14 15 16 21 22 17 17 18 20 20 20 18 16 18 21 20 21 22 24 26 27 28 29 29 30 30 31 30 30 28 27 27 26 26 25 25 26 28 28 30 30 32
15 17 17 14 16 17 14 15 17 20 21 16 16 16 18 20 23 20 21 23 25 26 27 27 28 29 29 30 30 29 28 27 26 25 25 25 24 25 27 27 28 30 31 32
15 17 19 17 18 21 21 16 18 18 17 15 18 20 20 21 22 20 22 24 25 26 26 27 27 27 28 29 28 26 25 25 24 23 23 23 24 25 26 27 28 30 31 32
16 15 15 17 18 21 14 16 18 16 19 20 21 20 19 19 20 21 23 24 25 26 26 26 27 26 27 27 26 24 23 23 22 21 22 22 24 24 25 26 28 30 31 32
18 18 16 16 16 17 19 19 18 20 21 21 21 20 21 21 22 22 23 24 26 26 26 26 25 24 25 25 24 22 21 21 20 20 21 22 22 23 24 26 28 29 31 32
19 19 18 19 20 21 20 21 21 21 23 23 22 22 23 24 23 23 24 25 25 26 26 25 24 23 24 23 22 20 19 19 19 19 20 21 21 23 23 25 27 29 30 31
17 16 19 22 24 25 23 22 22 21 22 23 23 24 24 24 23 24 24 25 25 25 24 23 23 22 22 21 19 18 18 18 17 17 18 20 20 21 23 24 26 28 29 30
20 21 22 23 21 21 20 21 23 23 23 23 23 24 24 24 23 24 25 25 25 24 23 22 22 21 20 19 17 16 16 16 16 16 17 18 19 20 22 24 26 28 29 29
Wind_Direction
253 264 305 306 314 304 302 297 314 309 318 316 309 299 284 291 302 312 320 330 332 333 334 335 336 337 336 337 337 338 338 339 339 339 338 337 335 334 333 332 332 330 329 329
252 266 287 294 303 306 307 306 305 308 308 304 295 282 278 285 293 310 319 328 329 331 333 334 335 336 337 337 338 339 340 341 341 340 340 338 335 335 334 334 333 332 331 330
289 258 282 286 294 301 308 314 309 308 305 298 286 276 266 274 298 309 317 326 331 332 333 333 333 336 337 337 338 339 340 341 341 341 340 339 338 337 337 337 336 336 334 333
270 274 279 283 299 308 299 313 307 303 302 305 266 310 252 261 278 289 308 324 329 331 332 333 334 334 337 337 338 339 340 340 341 341 340 340 340 340 341 342 341 340 339 338
258 265 279 286 301 307 305 304 304 300 291 292 282 289 290 245 270 284 306 322 327 331 332 333 335 335 338 338 338 339 339 340 341 341 341 341 341 341 342 345 347 347 346 345
262 280 294 300 295 302 303 301 293 296 292 289 274 267 274 268 272 280 310 322 326 329 330 332 334 334 336 337 338 337 339 340 341 341 341 342 341 343 344 347 350 351 350 348
255 273 291 295 292 290 295 299 305 289 281 302 317 279 311 320 322 295 309 320 325 328 329 330 333 335 336 337 337 338 340 341 341 341 342 342 343 344 346 349 351 353 354 354
252 266 291 300 305 305 305 307 303 306 311 309 306 298 294 306 308 309 312 319 324 327 327 330 334 334 337 337 338 338 340 341 340 341 342 343 344 345 346 349 351 352 355 355
272 278 286 299 301 303 309 298 305 297 290 284 285 309 303 296 302 304 312 319 323 325 328 330 333 334 336 337 337 338 340 340 341 341 342 344 344 344 345 347 350 352 354 355
278 276 286 296 294 285 284 304 296 283 297 302 302 300 302 285 295 304 309 319 322 325 328 330 332 334 336 336 337 338 339 340 341 341 342 343 343 343 344 347 349 351 353 354
279 280 283 289 279 300 282 287 281 293 292 298 305 306 307 291 297 306 314 318 321 324 327 328 331 334 335 336 337 338 339 340 341 341 341 342 343 343 344 346 348 350 352 354
280 284 280 287 291 291 285 284 288 289 295 301 300 298 305 308 308 312 313 316 319 324 325 327 330 333 334 336 337 338 339 341 341 341 341 342 342 343 344 346 347 349 351 353
270 274 278 273 281 285 278 274 279 286 294 291 297 304 298 301 304 309 313 317 318 321 324 327 330 333 334 335 336 338 340 340 340 340 341 342 343 343 344 346 347 349 351 353
277 275 275 279 292 286 278 279 284 283 290 293 295 301 291 296 300 304 312 317 319 322 324 327 330 332 333 335 337 338 339 340 340 340 341 342 343 344 344 345 347 348 350 351
276 275 275 277 282 283 281 284 285 283 285 286 295 297 301 305 298 308 313 316 316 320 323 326 329 331 333 335 336 338 339 339 340 341 342 343 343 343 344 346 347 348 350 350
270 274 279 278 278 275 281 284 284 285 287 288 294 297 311 308 306 305 308 311 315 319 323 325 328 330 333 335 336 337 338 339 340 341 342 343 344 344 346 346 347 348 349 350
264 271 275 277 286 291 287 287 290 295 288 292 293 303 302 305 306 307 310 310 315 319 322 324 326 329 332 334 335 337 338 339 340 342 343 344 345 345 347 347 347 347 348 348
263 265 270 278 288 283 288 292 298 298 298 297 294 297 302 308 311 310 314 313 315 318 320 323 326 328 332 333 335 336 337 339 340 342 343 345 345 346 346 347 347 347 347 348
263 265 272 277 277 290 293 276 295 295 299 299 294 296 298 306 307 308 315 317 317 319 320 323 324 327 330 332 334 336 337 339 341 342 343 345 346 347 347 347 347 348 348 348
259 264 268 278 280 284 294 293 300 301 298 311 299 295 296 302 306 305 310 315 319 320 321 322 325 327 328 331 332 336 337 339 341 342 343 345 346 347 347 348 349 349 349 349
260 265 264 267 278 285 289 289 297 296 304 303 305 301 299 302 309 308 310 313 316 319 320 322 324 326 329 330 332 335 337 339 340 342 343 346 347 347 350 350 351 351 352 352
255 263 269 270 279 283 281 292 292 299 299 300 303 304 305 304 306 307 309 312 315 317 318 321 322 325 328 330 332 335 336 338 340 343 345 346 348 349 351 354 353 355 355 355
259 260 268 272 282 282 286 298 292 298 300 299 300 300 300 300 302 305 309 312 314 315 317 317 320 323 327 330 332 333 335 338 341 344 345 346 350 351 354 355 356 357 358 358
258 270 275 281 282 292 284 286 288 292 297 299 297 297 299 298 300 304 308 310 312 314 314 315 317 321 325 328 330 332 334 336 339 342 347 349 352 354 356 357 359 360 1 1
268 265 276 278 280 282 281 285 288 289 296 297 297 297 298 299 300 302 305 308 310 311 312 314 317 320 322 325 327 330 333 336 339 346 350 351 354 357 358 0 1 3 3 3
267 272 274 279 284 286 285 288 292 290 293 294 294 296 299 299 299 302 304 306 308 308 309 314 315 316 319 321 324 328 334 339 343 347 351 354 357 359 2 3 4 5 6 6